H1 CPF 2 NER 2024 9 14 9 258 01 glonass141 H2 1908801 9141 44850 2024 9 14 0 0 0 2024 9 17 23 45 0 900 1 1 0 0 0 1 H9 10 0 60567 0.00000 0 -2425781.309 24740431.825 -5743276.872 10 0 60567 900.00000 0 -2338220.103 25279333.078 -2569851.358 10 0 60567 1800.00000 0 -2170687.182 25418989.902 653453.223 10 0 60567 2700.00000 0 -1978789.627 25150597.435 3864085.866 10 0 60567 3600.00000 0 -1818769.199 24478866.002 6999782.113 10 0 60567 4500.00000 0 -1744886.559 23421850.863 9999767.729 10 0 60567 5400.00000 0 -1806894.538 22010243.503 12805930.495 10 0 60567 6300.00000 0 -2047707.036 20286154.815 15363937.825 10 0 60567 7200.00000 0 -2501361.611 18301441.496 17624279.207 10 0 60567 8100.00000 0 -3191361.300 16115645.633 19543214.199 10 0 60567 9000.00000 0 -4129465.249 13793633.097 21083608.726 10 0 60567 9900.00000 0 -5314978.999 11403028.499 22215644.564 10 0 60567 10800.00000 0 -6734574.596 9011552.400 22917389.404 10 0 60567 11700.00000 0 -8362648.840 6684370.206 23175217.358 10 0 60567 12600.00000 0 -10162205.903 4481561.505 22984072.372 10 0 60567 13500.00000 0 -12086228.978 2455813.495 22347569.709 10 0 60567 14400.00000 0 -14079485.576 650432.963 21277933.355 10 0 60567 15300.00000 0 -16080693.007 -902241.668 19795769.940 10 0 60567 16200.00000 0 -18024955.645 -2181963.043 17929682.620 10 0 60567 17100.00000 0 -19846373.896 -3181186.127 15715731.076 10 0 60567 18000.00000 0 -21480717.182 -3905142.739 13196746.740 10 0 60567 18900.00000 0 -22868050.023 -4371376.287 10421515.056 10 0 60567 19800.00000 0 -23955201.542 -4608756.120 7443839.366 10 0 60567 20700.00000 0 -24697974.602 -4656012.714 4321503.593 10 0 60567 21600.00000 0 -25063001.073 -4559855.322 1115153.232 10 0 60567 22500.00000 0 -25029164.111 -4372751.610 -2112883.830 10 0 60567 23400.00000 0 -24588526.196 -4150463.487 -5299813.470 10 0 60567 24300.00000 0 -23746722.397 -3949444.095 -8383604.177 10 0 60567 25200.00000 0 -22522800.873 -3824207.213 -11304203.785 10 0 60567 26100.00000 0 -20948516.151 -3824781.815 -14004719.225 10 0 60567 27000.00000 0 -19067104.044 -3994361.100 -16432535.216 10 0 60567 27900.00000 0 -16931589.204 -4367247.157 -18540348.965 10 0 60567 28800.00000 0 -14602696.275 -4967179.811 -20287099.839 10 0 60567 29700.00000 0 -12146452.425 -5806121.763 -21638775.189 10 0 60567 30600.00000 0 -9631582.020 -6883552.625 -22569076.295 10 0 60567 31500.00000 0 -7126802.930 -8186302.635 -23059931.277 10 0 60567 32400.00000 0 -4698137.783 -9688933.849 -23101845.167 10 0 60567 33300.00000 0 -2406352.604 -11354653.272 -22694080.585 10 0 60567 34200.00000 0 -304629.608 -13136719.823 -21844665.955 10 0 60567 35100.00000 0 1563429.273 -14980286.106 -20570231.609 10 0 60567 36000.00000 0 3165385.781 -16824597.639 -18895677.462 10 0 60567 36900.00000 0 4481070.825 -18605457.088 -16853679.313 10 0 60567 37800.00000 0 5503167.629 -20257849.959 -14484043.858 10 0 60567 38700.00000 0 6237250.135 -21718621.466 -11832925.504 10 0 60567 39600.00000 0 6701277.234 -22929092.178 -8951920.750 10 0 60567 40500.00000 0 6924566.316 -23837502.771 -5897058.243 10 0 60567 41400.00000 0 6946291.463 -24401185.490 -2727704.661 10 0 60567 42300.00000 0 6813571.465 -24588371.567 494591.835 10 0 60567 43200.00000 0 6579229.911 -24379559.275 3707297.704 10 0 60567 44100.00000 0 6299323.115 -23768385.866 6848106.225 10 0 60567 45000.00000 0 6030541.045 -22761967.526 9856142.148 10 0 60567 45900.00000 0 5827591.391 -21380693.766 12673135.573 10 0 60567 46800.00000 0 5740677.211 -19657485.401 15244542.750 10 0 60567 47700.00000 0 5813174.310 -17636547.457 17520592.696 10 0 60567 48600.00000 0 6079605.817 -15371669.121 19457240.289 10 0 60567 49500.00000 0 6563998.793 -12924141.270 21017008.451 10 0 60567 50400.00000 0 7278691.709 -10360377.646 22169704.233 10 0 60567 51300.00000 0 8223642.813 -7749337.546 22892996.035 10 0 60567 52200.00000 0 9386268.741 -5159855.787 23172841.708 10 0 60567 53100.00000 0 10741820.907 -2657989.317 23003759.870 10 0 60567 54000.00000 0 12254285.067 -304488.999 22388939.459 10 0 60567 54900.00000 0 13877767.965 1847500.021 21340185.219 10 0 60567 55800.00000 0 15558314.828 3754415.204 19877699.616 10 0 60567 56700.00000 0 17236083.531 5383849.684 18029704.435 10 0 60567 57600.00000 0 18847786.231 6715656.833 15831908.121 10 0 60567 58500.00000 0 20329297.708 7742540.711 13326827.815 10 0 60567 59400.00000 0 21618322.204 8470107.916 10562977.778 10 0 60567 60300.00000 0 22657007.414 8916378.648 7593938.657 10 0 60567 61200.00000 0 23394395.831 9110777.362 4477324.655 10 0 60567 62100.00000 0 23788609.810 9092645.348 1273668.026 10 0 60567 63000.00000 0 23808677.326 8909337.942 -1954757.697 10 0 60567 63900.00000 0 23435920.123 8613986.940 -5145152.585 10 0 60567 64800.00000 0 22664844.139 8263023.296 -8235419.091 10 0 60567 65700.00000 0 21503493.035 7913565.783 -11165379.934 10 0 60567 66600.00000 0 19973248.370 7620787.261 -13877960.219 10 0 60567 67500.00000 0 18108083.596 7435371.387 -16320309.652 10 0 60567 68400.00000 0 15953302.250 7401168.863 -18444841.894 10 0 60567 69300.00000 0 13563812.795 7553153.847 -20210169.859 10 0 60567 70200.00000 0 11002012.252 7915768.282 -21581918.052 10 0 60567 71100.00000 0 8335367.295 8501725.225 -22533395.738 10 0 60567 72000.00000 0 5633794.231 9311322.648 -23046117.647 10 0 60567 72900.00000 0 2966947.577 10332297.247 -23110162.205 10 0 60567 73800.00000 0 401530.543 11540224.837 -22724360.625 10 0 60567 74700.00000 0 -2001260.426 12899450.578 -21896313.573 10 0 60567 75600.00000 0 -4188050.870 14364509.858 -20642235.623 10 0 60567 76500.00000 0 -6115267.515 15881979.859 -18986631.048 10 0 60567 77400.00000 0 -7750699.963 17392683.671 -16961807.795 10 0 60567 78300.00000 0 -9074581.225 18834153.952 -14607239.648 10 0 60567 79200.00000 0 -10080143.757 20143252.288 -11968789.473 10 0 60567 80100.00000 0 -10773629.811 21258833.858 -9097809.212 10 0 60567 81000.00000 0 -11173757.894 22124345.256 -6050134.629 10 0 60567 81900.00000 0 -11310669.984 22690246.223 -2884994.834 10 0 60567 82800.00000 0 -11224405.869 22916153.624 336141.703 10 0 60567 83700.00000 0 -10962970.720 22772617.837 3550761.851 10 0 60567 84600.00000 0 -10580078.848 22242457.318 6696519.765 10 0 60567 85500.00000 0 -10132669.892 21321595.802 9712442.450 10 0 60568 0.00000 0 -9678302.913 20019367.575 12540105.436 10 0 60568 900.00000 0 -9272538.236 18358277.695 15124757.670 10 0 60568 1800.00000 0 -8966417.936 16373229.161 17416370.732 10 0 60568 2700.00000 0 -8804149.785 14110246.983 19370597.972 10 0 60568 3600.00000 0 -8821092.250 11624753.585 20949622.271 10 0 60568 4500.00000 0 -9042124.414 8979466.051 22122878.633 10 0 60568 5400.00000 0 -9480468.912 6242001.668 22867638.502 10 0 60568 6300.00000 0 -10137017.176 3482289.828 23169445.394 10 0 60568 7200.00000 0 -11000185.485 769896.174 23022394.037 10 0 60568 8100.00000 0 -12046308.539 -1828631.714 22429247.934 10 0 60568 9000.00000 0 -13240555.133 -4252288.674 21401392.897 10 0 60568 9900.00000 0 -14538328.984 -6447903.059 19958626.908 10 0 60568 10800.00000 0 -15887097.627 -8372100.723 18128789.436 10 0 60568 11700.00000 0 -17228574.399 -9992861.178 15947236.133 10 0 60568 12600.00000 0 -18501163.477 -11290601.696 13456167.723 10 0 60568 13500.00000 0 -19642566.568 -12258744.392 10703824.660 10 0 60568 14400.00000 0 -20592442.461 -12903742.617 7743561.850 10 0 60568 15300.00000 0 -21295007.784 -13244565.405 4632820.415 10 0 60568 16200.00000 0 -21701469.108 -13311661.440 1432015.761 10 0 60568 17100.00000 0 -21772183.019 -13145446.053 -1796636.674 10 0 60568 18000.00000 0 -21478451.722 -12794375.097 -4990334.967 10 0 60568 18900.00000 0 -20803876.802 -12312687.363 -8086919.353 10 0 60568 19800.00000 0 -19745212.215 -11757911.571 -11026091.174 10 0 60568 20700.00000 0 -18312678.775 -11188244.292 -13750597.289 10 0 60568 21600.00000 0 -16529725.255 -10659910.855 -16207355.729 10 0 60568 22500.00000 0 -14432244.812 -10224622.152 -18348499.582 10 0 60568 23400.00000 0 -12067278.666 -9927236.204 -20132317.823 10 0 60568 24300.00000 0 -9491260.816 -9803724.539 -21524074.064 10 0 60568 25200.00000 0 -6767877.000 -9879530.324 -22496686.872 10 0 60568 26100.00000 0 -3965627.447 -10168388.327 -23031258.234 10 0 60568 27000.00000 0 -1155195.301 -10671657.009 -23117439.981 10 0 60568 27900.00000 0 1593269.374 -11378191.068 -22753631.327 10 0 60568 28800.00000 0 4212836.749 -12264759.796 -21947004.082 10 0 60568 29700.00000 0 6642343.758 -13296993.310 -20713355.555 10 0 60568 30600.00000 0 8828694.427 -14430816.422 -19076792.517 10 0 60568 31500.00000 0 10728818.909 -15614309.209 -17069252.949 10 0 60568 32400.00000 0 12311210.741 -16789915.418 -14729875.365 10 0 60568 33300.00000 0 13556979.720 -17896905.168 -12104228.542 10 0 60568 34200.00000 0 14460378.199 -18873987.747 -9243417.143 10 0 60568 35100.00000 0 15028780.865 -19661964.121 -6203081.176 10 0 60568 36000.00000 0 15282121.024 -20206307.217 -3042309.212 10 0 60568 36900.00000 0 15251809.205 -20459561.219 177512.994 10 0 60568 37800.00000 0 14979181.532 -20383458.954 3393895.724 10 0 60568 38700.00000 0 14513544.900 -19950668.494 6544456.933 10 0 60568 39600.00000 0 13909902.599 -19146095.785 9568128.638 10 0 60568 40500.00000 0 13226457.116 -17967688.915 12406334.811 10 0 60568 41400.00000 0 12521995.751 -16426710.500 15004118.342 10 0 60568 42300.00000 0 11853269.150 -14547466.895 17311195.836 10 0 60568 43200.00000 0 11272472.743 -12366505.361 19282920.719 10 0 60568 44100.00000 0 10824936.346 -9931312.290 20881137.066 10 0 60568 45000.00000 0 10547118.304 -7298565.933 22074908.716 10 0 60568 45900.00000 0 10464987.629 -4532015.228 22841110.679 10 0 60568 46800.00000 0 10592861.455 -1700071.406 23164872.298 10 0 60568 47700.00000 0 10932746.301 1126789.253 23039864.266 10 0 60568 48600.00000 0 11474210.847 3878705.597 22468424.209 10 0 60568 49500.00000 0 12194796.090 6489085.320 21461518.306 10 0 60568 50400.00000 0 13060946.614 8897123.772 20038539.135 10 0 60568 51300.00000 0 14029425.127 11050084.714 18226942.728 10 0 60568 52200.00000 0 15049152.322 12905249.353 16061730.653 10 0 60568 53100.00000 0 16063396.187 14431453.196 13584785.750 10 0 60568 54000.00000 0 17012219.959 15610147.049 10844073.023 10 0 60568 54900.00000 0 17835086.592 16435937.853 7892719.814 10 0 60568 55800.00000 0 18473510.467 16916586.543 4787992.155 10 0 60568 56700.00000 0 18873644.398 17072462.729 1590186.436 10 0 60568 57600.00000 0 18988692.122 16935478.863 -1638542.313 10 0 60568 58500.00000 0 18781043.237 16547548.644 -4835392.572 10 0 60568 59400.00000 0 18224038.852 15958634.774 -7938144.764 10 0 60568 60300.00000 0 17303291.589 15224468.860 -10886381.226 10 0 60568 61200.00000 0 16017502.263 14404040.458 -13622672.830 10 0 60568 62100.00000 0 14378736.972 13556962.303 -16093708.048 10 0 60568 63000.00000 0 12412151.209 12740824.157 -18251341.364 10 0 60568 63900.00000 0 10155171.267 12008648.243 -20053539.622 10 0 60568 64800.00000 0 7656166.264 11406554.829 -21465207.213 10 0 60568 65700.00000 0 4972665.783 10971737.442 -22458873.559 10 0 60568 66600.00000 0 2169197.393 10730833.800 -23015229.327 10 0 60568 67500.00000 0 -685165.712 10698761.529 -23123501.009 10 0 60568 68400.00000 0 -3519444.635 10878067.789 -22781656.875 10 0 60568 69300.00000 0 -6263472.125 11258819.933 -21996440.650 10 0 60568 70200.00000 0 -8850574.239 11819041.316 -20783232.819 10 0 60568 71100.00000 0 -11220104.911 12525673.169 -19165742.723 10 0 60568 72000.00000 0 -13319728.354 13336021.202 -17175538.051 10 0 60568 72900.00000 0 -15107355.042 14199625.120 -14851421.359 10 0 60568 73800.00000 0 -16552651.752 15060471.401 -12238666.287 10 0 60568 74700.00000 0 -17638064.083 15859455.298 -9388128.877 10 0 60568 75600.00000 0 -18359310.514 16536987.588 -6355251.756 10 0 60568 76500.00000 0 -18725329.275 17035635.674 -3198981.082 10 0 60568 77400.00000 0 -18757682.299 17302687.312 19382.223 10 0 60568 78300.00000 0 -18489443.271 17292528.781 3237374.213 10 0 60568 79200.00000 0 -17963618.303 16968737.254 6392579.229 10 0 60568 80100.00000 0 -17231167.151 16305799.414 9423837.119 10 0 60568 81000.00000 0 -16348709.352 15290384.208 12272423.070 10 0 60568 81900.00000 0 -15376012.423 13922116.384 14883177.578 10 0 60568 82800.00000 0 -14373367.977 12213818.436 17205565.243 10 0 60568 83700.00000 0 -13398965.812 10191210.609 19194642.788 10 0 60568 84600.00000 0 -12506375.683 7892081.034 20811918.606 10 0 60568 85500.00000 0 -11742241.626 5364959.840 22026088.292 10 0 60569 0.00000 0 -11144284.640 2667351.546 22813633.004 10 0 60569 900.00000 0 -10739696.248 -136403.692 23159270.336 10 0 60569 1800.00000 0 -10543990.298 -2977549.199 23056248.687 10 0 60569 2700.00000 0 -10560359.639 -5785517.538 22506481.155 10 0 60569 3600.00000 0 -10779565.396 -8490613.139 21520515.101 10 0 60569 4500.00000 0 -11180363.541 -11026663.652 20117337.938 10 0 60569 5400.00000 0 -11730451.633 -13333531.317 18324021.928 10 0 60569 6300.00000 0 -12387897.023 -15359381.224 16175213.637 10 0 60569 7200.00000 0 -13102987.627 -17062612.883 13712476.568 10 0 60569 8100.00000 0 -13820428.543 -18413375.065 10983498.317 10 0 60569 9000.00000 0 -14481792.886 -19394600.720 8041176.270 10 0 60569 9900.00000 0 -15028124.046 -20002518.415 4942598.600 10 0 60569 10800.00000 0 -15402579.640 -20246618.459 1747939.607 10 0 60569 11700.00000 0 -15553004.987 -20149074.692 -1480709.404 10 0 60569 12600.00000 0 -15434326.421 -19743645.864 -4680550.831 10 0 60569 13500.00000 0 -15010661.802 -19074102.726 -7789308.942 10 0 60569 14400.00000 0 -14257057.299 -18192247.262 -10746450.794 10 0 60569 15300.00000 0 -13160775.080 -17155608.014 -13494375.002 10 0 60569 16200.00000 0 -11722075.589 -16024909.506 -15979544.110 10 0 60569 17100.00000 0 -9954459.503 -14861423.428 -18153537.397 10 0 60569 18000.00000 0 -7884357.564 -13724314.421 -19974002.651 10 0 60569 18900.00000 0 -5550279.940 -12668093.369 -21405487.650 10 0 60569 19800.00000 0 -3001459.809 -11740286.474 -22420134.733 10 0 60569 20700.00000 0 -296047.328 -10979418.916 -22998224.694 10 0 60569 21600.00000 0 2501070.862 -10413398.371 -23128559.533 10 0 60569 22500.00000 0 5320735.719 -10058366.346 -22808676.822 10 0 60569 23400.00000 0 8092160.699 -9918065.327 -22044891.932 10 0 60569 24300.00000 0 10745647.260 -9983747.644 -20852167.780 10 0 60569 25200.00000 0 13215257.983 -10234628.932 -19253815.137 10 0 60569 26100.00000 0 15441336.190 -10638865.974 -17281029.888 10 0 60569 27000.00000 0 17372767.615 -11155016.512 -14972276.762 10 0 60569 27900.00000 0 18968890.654 -11733918.304 -12372532.049 10 0 60569 28800.00000 0 20200976.584 -12320907.041 -9532400.601 10 0 60569 29700.00000 0 21053219.326 -12858278.565 -6507124.789 10 0 60569 30600.00000 0 21523195.047 -13287890.699 -3355505.200 10 0 60569 31500.00000 0 21621774.122 -13553794.230 -138754.574 10 0 60569 32400.00000 0 21372491.038 -13604781.672 3080692.359 10 0 60569 33300.00000 0 20810400.461 -13396746.073 6240389.754 10 0 60569 34200.00000 0 19980469.038 -12894750.431 9279088.583 10 0 60569 35100.00000 0 18935571.780 -12074720.593 12137918.311 10 0 60569 36000.00000 0 17734177.987 -10924690.547 14761519.792 10 0 60569 36900.00000 0 16437824.302 -9445547.795 17099108.024 10 0 60569 37800.00000 0 15108480.881 -7651247.382 19105445.036 10 0 60569 38700.00000 0 13805920.628 -5568485.184 20741705.151 10 0 60569 39600.00000 0 12585200.969 -3235843.370 21976216.937 10 0 60569 40500.00000 0 11494362.553 -702442.558 22785068.626 10 0 60569 41400.00000 0 10572440.099 1973844.674 23152566.212 10 0 60569 42300.00000 0 9847867.581 4728546.324 23071536.038 10 0 60569 43200.00000 0 9337343.599 7493022.064 22543466.368 10 0 60569 44100.00000 0 9045203.903 10197073.937 21578485.090 10 0 60569 45000.00000 0 8963327.177 12771630.162 20195173.490 10 0 60569 45900.00000 0 9071578.218 15151392.277 18420218.813 10 0 60569 46800.00000 0 9338770.491 17277336.983 16287911.123 10 0 60569 47700.00000 0 9724108.400 19098969.506 13839492.858 10 0 60569 48600.00000 0 10179049.447 20576235.097 11122372.269 10 0 60569 49500.00000 0 10649508.679 21681008.975 8189214.657 10 0 60569 50400.00000 0 11078312.979 22398102.079 5096928.039 10 0 60569 51300.00000 0 11407801.758 22725740.008 1905562.183 10 0 60569 52200.00000 0 11582463.903 22675494.365 -1322857.875 10 0 60569 53100.00000 0 11551498.664 22271668.781 -4525541.022 10 0 60569 54000.00000 0 11271190.938 21550164.979 -7640157.907 10 0 60569 54900.00000 0 10706998.851 20556876.400 -10606062.746 10 0 60569 55800.00000 0 9835263.478 19345677.199 -13365484.180 10 0 60569 56700.00000 0 8644466.434 17976091.758 -15864660.917 10 0 60569 57600.00000 0 7135980.278 16510743.611 -18054898.945 10 0 60569 58500.00000 0 5324278.241 15012692.129 -19893528.704 10 0 60569 59400.00000 0 3236592.852 13542770.007 -21344742.909 10 0 60569 60300.00000 0 912036.536 12157034.470 -22380298.192 10 0 60569 61200.00000 0 -1599779.900 10904440.018 -22980066.702 10 0 60569 62100.00000 0 -4240573.621 9824830.900 -23132426.955 10 0 60569 63000.00000 0 -6945585.007 8947337.638 -22834486.607 10 0 60569 63900.00000 0 -9646050.204 8289244.557 -22092133.152 10 0 60569 64800.00000 0 -12271847.894 7855375.090 -20919912.076 10 0 60569 65700.00000 0 -14754209.964 7638019.586 -19340735.346 10 0 60569 66600.00000 0 -17028383.145 7617407.275 -17385426.447 10 0 60569 67500.00000 0 -19036130.936 7762701.022 -15092111.357 10 0 60569 68400.00000 0 -20727971.967 8033471.409 -12505467.823 10 0 60569 69300.00000 0 -22065062.071 8381586.524 -9675848.094 10 0 60569 70200.00000 0 -23020642.526 8753436.355 -6658292.684 10 0 60569 71100.00000 0 -23580995.150 9092396.773 -3511454.858 10 0 60569 72000.00000 0 -23745865.775 9341428.093 -296457.264 10 0 60569 72900.00000 0 -23528339.969 9445697.874 2924296.667 10 0 60569 73800.00000 0 -22954177.829 9355116.768 6088333.186 10 0 60569 74700.00000 0 -22060637.246 9026680.252 9134316.872 10 0 60569 75600.00000 0 -20894836.323 8426517.451 12003234.148 10 0 60569 76500.00000 0 -19511724.544 7531560.844 14639529.066 10 0 60569 77400.00000 0 -17971748.322 6330766.631 16992169.944 10 0 60569 78300.00000 0 -16338308.839 4825834.465 19015627.052 10 0 60569 79200.00000 0 -14675118.252 3031396.008 20670743.485 10 0 60569 80100.00000 0 -13043564.145 974663.843 21925483.438 10 0 60569 81000.00000 0 -11500191.361 -1305445.600 22755544.552 10 0 60569 81900.00000 0 -10094405.181 -3759679.887 23144823.409 10 0 60569 82800.00000 0 -8866490.540 -6330253.868 23085725.874 10 0 60569 83700.00000 0 -7846028.825 -8953015.318 22579316.616 10 0 60569 84600.00000 0 -7050777.454 -11559884.940 21635304.850 10 0 60569 85500.00000 0 -6486058.454 -14081471.279 20271866.072 10 0 60570 0.00000 0 -6144681.367 -16449753.492 18515302.552 10 0 60570 900.00000 0 -6007403.671 -18600723.127 16399546.938 10 0 60570 1800.00000 0 -6043910.143 -20476872.892 13965519.690 10 0 60570 2700.00000 0 -6214270.004 -22029433.492 11260348.237 10 0 60570 3600.00000 0 -6470811.572 -23220262.106 8336463.938 10 0 60570 4500.00000 0 -6760335.670 -24023304.509 5250592.451 10 0 60570 5400.00000 0 -7026574.611 -24425568.761 2062656.517 10 0 60570 6300.00000 0 -7212792.703 -24427568.781 -1165387.847 10 0 60570 7200.00000 0 -7264417.660 -24043218.276 -4370759.005 10 0 60570 8100.00000 0 -7131590.577 -23299178.683 -7491077.183 10 0 60570 9000.00000 0 -6771525.059 -22233687.991 -10465587.116 10 0 60570 9900.00000 0 -6150573.967 -20894919.457 -13236350.940 10 0 60570 10800.00000 0 -5245914.429 -19338939.404 -15749387.034 10 0 60570 11700.00000 0 -4046777.934 -17627350.406 -17955731.494 10 0 60570 12600.00000 0 -2555171.699 -15824719.677 -19812400.629 10 0 60570 13500.00000 0 -786059.190 -13995901.542 -21283234.968 10 0 60570 14400.00000 0 1233009.283 -12203367.259 -22339607.891 10 0 60570 15300.00000 0 3462801.491 -10504654.944 -22960984.838 10 0 60570 16200.00000 0 5853806.613 -8950046.991 -23135322.257 10 0 60570 17100.00000 0 8348078.764 -7580572.446 -22859298.756 10 0 60570 18000.00000 0 10881443.838 -6426417.714 -22138374.309 10 0 60570 18900.00000 0 13385977.600 -5505811.526 -20986676.862 10 0 60570 19800.00000 0 15792651.546 -4824429.707 -19426719.021 10 0 60570 20700.00000 0 18034036.062 -4375343.310 -17488950.891 10 0 60570 21600.00000 0 20046948.126 -4139510.552 -15211158.284 10 0 60570 22500.00000 0 21774933.225 -4086790.032 -12637718.550 10 0 60570 23400.00000 0 23170478.199 -4177430.742 -9818729.043 10 0 60570 24300.00000 0 24196863.216 -4363974.330 -6809025.716 10 0 60570 25200.00000 0 24829576.294 -4593487.837 -3667111.447 10 0 60570 26100.00000 0 25057232.285 -4810031.356 -454015.447 10 0 60570 27000.00000 0 24881959.152 -4957255.436 2767893.657 10 0 60570 27900.00000 0 24319236.686 -4981017.860 5936117.750 10 0 60570 28800.00000 0 23397195.813 -4831908.912 8989238.481 10 0 60570 29700.00000 0 22155409.021 -4467578.451 11868102.497 10 0 60570 30600.00000 0 20643223.557 -3854766.685 14516960.049 10 0 60570 31500.00000 0 18917707.793 -2970953.225 16884535.453 10 0 60570 32400.00000 0 17041296.883 -1805555.096 18925009.543 10 0 60570 33300.00000 0 15079235.896 -360623.266 20598896.145 10 0 60570 34200.00000 0 13096926.593 1348991.923 21873796.673 10 0 60570 35100.00000 0 11157287.547 3296014.095 22725019.389 10 0 60570 36000.00000 0 9318236.482 5441638.518 23136052.293 10 0 60570 36900.00000 0 7630398.376 7736918.176 23098881.191 10 0 60570 37800.00000 0 6135133.538 10124582.256 22614147.174 10 0 60570 38700.00000 0 4862966.585 12541213.368 21691140.379 10 0 60570 39600.00000 0 3832480.951 14919694.863 20347629.703 10 0 60570 40500.00000 0 3049724.386 17191828.322 18609530.906 10 0 60570 41400.00000 0 2508150.012 19291013.888 16510418.325 10 0 60570 42300.00000 0 2189095.392 21154882.935 14090888.337 10 0 60570 43200.00000 0 2062779.765 22727774.063 11397785.464 10 0 60570 44100.00000 0 2089777.862 23962949.198 8483304.811 10 0 60570 45000.00000 0 2222908.610 24824456.818 5403987.181 10 0 60570 45900.00000 0 2409459.245 25288563.612 2219625.648 10 0 60570 46800.00000 0 2593650.805 25344693.504 -1007895.535 10 0 60570 47700.00000 0 2719240.318 24995833.509 -4215806.983 10 0 60570 48600.00000 0 2732148.708 24258388.243 -7341681.242 10 0 60570 49500.00000 0 2583001.959 23161488.258 -10324656.194 10 0 60570 50400.00000 0 2229476.394 21745780.643 -13106629.947 10 0 60570 51300.00000 0 1638347.053 20061752.387 -15633402.810 10 0 60570 52200.00000 0 787150.645 18167657.055 -17855743.047 10 0 60570 53100.00000 0 -334609.021 16127132.197 -19730354.663 10 0 60570 54000.00000 0 -1724765.761 14006608.105 -21220727.616 10 0 60570 54900.00000 0 -3368336.695 11872617.256 -22297853.434 10 0 60570 55800.00000 0 -5237916.618 9789117.851 -22940792.021 10 0 60570 56700.00000 0 -7294605.449 7814944.001 -23137078.663 10 0 60570 57600.00000 0 -9489430.471 6001489.421 -22882963.514 10 0 60570 58500.00000 0 -11765204.159 4390721.384 -22183479.273 10 0 60570 59400.00000 0 -14058739.949 3013607.377 -21052336.183 10 0 60570 60300.00000 0 -16303333.285 1889019.241 -19511646.920 10 0 60570 61200.00000 0 -18431404.116 1023159.262 -17591487.243 10 0 60570 62100.00000 0 -20377190.283 409530.496 -15329301.497 10 0 60570 63000.00000 0 -22079379.209 29450.580 -12769165.056 10 0 60570 63900.00000 0 -23483567.924 -146914.611 -9960918.590 10 0 60570 64800.00000 0 -24544448.851 -159043.008 -6959191.567 10 0 60570 65700.00000 0 -25227630.375 -54139.527 -3822334.443 10 0 60570 66600.00000 0 -25511016.710 115107.146 -611280.865 10 0 60570 67500.00000 0 -25385690.181 292998.145 2611637.572 10 0 60570 68400.00000 0 -24856260.040 423422.953 5783900.726 10 0 60570 69300.00000 0 -23940664.270 452472.532 8844009.764 10 0 60570 70200.00000 0 -22669433.751 330956.442 11732674.114 10 0 60570 71100.00000 0 -21084450.450 16717.699 14393952.840 10 0 60570 72000.00000 0 -19237252.172 -523352.044 16776328.869 10 0 60570 72900.00000 0 -17186954.997 -1311681.690 18833696.141 10 0 60570 73800.00000 0 -14997879.951 -2358842.732 20526241.591 10 0 60570 74700.00000 0 -12736982.353 -3662873.725 21821205.992 10 0 60570 75600.00000 0 -10471190.011 -5209135.943 22693510.065 10 0 60570 76500.00000 0 -8264759.830 -6970707.134 23126234.722 10 0 60570 77400.00000 0 -6176761.432 -8909298.110 23110946.849 10 0 60570 78300.00000 0 -4258790.979 -10976655.512 22647864.721 10 0 60570 79200.00000 0 -2553008.911 -13116394.094 21745859.805 10 0 60570 80100.00000 0 -1090582.093 -15266184.098 20422294.449 10 0 60570 81000.00000 0 109405.656 -17360204.459 18702697.769 10 0 60570 81900.00000 0 1040529.823 -19331761.310 16620284.812 10 0 60570 82800.00000 0 1709064.437 -21115963.895 14215326.996 10 0 60570 83700.00000 0 2133482.682 -22652347.033 11534384.575 10 0 60570 84600.00000 0 2343439.713 -23887330.918 8629414.714 10 0 60570 85500.00000 0 2378280.197 -24776415.063 5556771.386 99